Minot AFB, ND

4:33 AM CST on November 15, 2019 (GMT -0600)
Minot Air Force Base

Weather History for KMIB - September, 2019

Change the Weather History Date:

Saturday, September 28, 2019

  Actual Average Record
Temperature  
Mean Temperature 46 °F -  
Max Temperature 52 °F 61 °F 84 °F (2001)
Min Temperature 40 °F 35 °F 26 °F (2018)
Degree Days  
Heating Degree Days 19    
Moisture  
Dew Point 38 °F    
Average Humidity 75    
Maximum Humidity 87    
Minimum Humidity 57    
Precipitation  
Precipitation 0.07 in - - ()
Sea Level Pressure  
Sea Level Pressure 30.21 in    
Wind  
Wind Speed 8 mph (ENE)    
Max Wind Speed 17 mph    
Max Gust Speed 23 mph    
Visibility 10 miles    
Events Rain    
Averages and records for this station are not official NWS values.
T = Trace of Precipitation, MM = Missing Value Source: NWS Daily Summary

Daily Weather History Graph

Daily Weather History Graph

Search for Another Location

Airport or City:

Astronomy

Sep. 28, 2019 Rise Set
Actual Time 7:40 AM CDT 7:31 PM CDT
Civil Twilight 7:09 AM CDT 8:02 PM CDT
Nautical Twilight 6:32 AM CDT 8:38 PM CDT
Astronomical Twilight 5:55 AM CDT 9:15 PM CDT
Moon 7:12 AM CDT (9/28) 8:00 PM CDT (9/28)
Length of Visible Light 12h 53m
Length of Day
11h 50m
Waning Crescent, 0% of the Moon is Illuminated
Sep 28
Waning Crescent
Sep 28
New
Oct 5
First Quarter
Oct 13
Full
Oct 21
Last Quarter

Hourly Weather History & Observations

Time (CDT) Temp. Windchill Dew Point Humidity Pressure Visibility Wind Dir Wind Speed Gust Speed Precip Events Conditions
12:56 AM 44.4 °F 42.9 °F 36.3 °F 73% 30.10 in 10.0 mi NNW 3.5 mph - N/A   Overcast
1:56 AM 43.7 °F 42.1 °F 37.2 °F 78% 30.11 in 10.0 mi North 3.5 mph - N/A   Overcast
2:56 AM 43.3 °F - 37.9 °F 81% 30.13 in 10.0 mi Calm Calm - N/A   Overcast
3:56 AM 42.6 °F 40.9 °F 38.1 °F 84% 30.15 in 10.0 mi NNW 3.5 mph - N/A   Overcast
4:56 AM 42.3 °F 38.6 °F 36.9 °F 81% 30.16 in 10.0 mi North 5.8 mph - N/A   Overcast
5:56 AM 41.4 °F 39.4 °F 36.9 °F 84% 30.17 in 10.0 mi NNE 3.5 mph - N/A   Overcast
6:56 AM 41.2 °F 38.2 °F 36.5 °F 83% 30.20 in 10.0 mi NNE 4.6 mph - N/A   Overcast
7:56 AM 40.5 °F 37.3 °F 35.8 °F 83% 30.24 in 10.0 mi NNE 4.6 mph - N/A   Overcast
8:56 AM 41.0 °F 36.4 °F 36.3 °F 83% 30.26 in 10.0 mi NE 6.9 mph - N/A   Overcast
9:56 AM 42.1 °F 36.6 °F 37.6 °F 84% 30.28 in 10.0 mi ENE 9.2 mph - N/A   Overcast
10:31 AM 42.8 °F 37.5 °F 39.2 °F 87% 30.28 in 10.0 mi East 9.2 mph - N/A   Overcast
10:56 AM 43.7 °F 38.6 °F 38.8 °F 83% 30.26 in 10.0 mi ENE 9.2 mph - N/A   Overcast
11:31 AM 44.6 °F 39.7 °F 39.2 °F 81% 30.25 in 10.0 mi ENE 9.2 mph - N/A   Mostly Cloudy
11:36 AM 46.4 °F 41.5 °F 39.2 °F 76% 30.25 in 10.0 mi ENE 10.4 mph - N/A   Scattered Clouds
11:41 AM 46.4 °F 41.5 °F 39.2 °F 76% 30.26 in 10.0 mi ENE 10.4 mph - N/A   Mostly Cloudy
11:46 AM 46.4 °F 41.9 °F 39.2 °F 76% 30.26 in 10.0 mi ENE 9.2 mph - N/A   Mostly Cloudy
11:56 AM 46.4 °F 41.9 °F 39.6 °F 77% 30.26 in 10.0 mi East 9.2 mph - N/A   Mostly Cloudy
12:06 PM 46.4 °F 41.9 °F 39.2 °F 76% 30.22 in 10.0 mi East 9.2 mph - N/A   Overcast
12:16 PM 46.4 °F 41.9 °F 39.2 °F 76% 30.22 in 10.0 mi East 9.2 mph - N/A   Overcast
12:56 PM 48.6 °F - 39.2 °F 70% 30.26 in 10.0 mi ESE 11.5 mph - N/A   Mostly Cloudy
1:56 PM 50.7 °F - 36.9 °F 59% 30.26 in 10.0 mi East 10.4 mph - N/A   Mostly Cloudy
2:56 PM 52.5 °F - 37.8 °F 57% 30.22 in 10.0 mi East 17.3 mph 20.7 mph N/A   Scattered Clouds
3:56 PM 51.8 °F - 37.0 °F 57% 30.22 in 10.0 mi East 16.1 mph - N/A   Mostly Cloudy
4:56 PM 51.6 °F - 38.1 °F 60% 30.21 in 10.0 mi East 12.7 mph 20.7 mph N/A   Scattered Clouds
5:56 PM 50.7 °F - 37.4 °F 60% 30.20 in 10.0 mi East 12.7 mph - N/A   Partly Cloudy
6:51 PM 50.0 °F - 37.4 °F 62% 30.19 in 10.0 mi East 12.7 mph - N/A   Light Drizzle
6:56 PM 49.6 °F - 38.3 °F 65% 30.18 in 10.0 mi East 15.0 mph - 0.00 in   Light Drizzle
7:02 PM 50.0 °F - 37.4 °F 62% 30.18 in 10.0 mi East 12.7 mph - N/A   Scattered Clouds
7:56 PM 49.1 °F - 37.4 °F 64% 30.17 in 10.0 mi East 16.1 mph - 0.00 in   Clear
8:56 PM 48.7 °F - 37.9 °F 66% 30.19 in 10.0 mi East 12.7 mph - N/A   Mostly Cloudy
9:40 PM 48.2 °F - 39.2 °F 71% 30.20 in 10.0 mi East 15.0 mph - N/A Rain Light Rain
9:56 PM 46.9 °F - 40.1 °F 77% 30.20 in 10.0 mi East 17.3 mph - 0.00 in Rain Light Rain
10:56 PM 44.6 °F 37.4 °F 40.5 °F 85% 30.22 in 10.0 mi East 16.1 mph - 0.02 in Rain Light Rain
11:06 PM 44.6 °F 37.8 °F 41.0 °F 87% 30.23 in 10.0 mi East 15.0 mph - N/A Rain Light Rain
11:11 PM 44.6 °F 38.4 °F 41.0 °F 87% 30.23 in 10.0 mi East 12.7 mph 21.9 mph N/A Rain Light Rain
11:51 PM 44.6 °F 37.4 °F 41.0 °F 87% 30.24 in 8.0 mi East 16.1 mph 23.0 mph N/A Rain Light Rain
11:56 PM 43.5 °F 36.4 °F 39.9 °F 87% 30.24 in 8.0 mi East 15.0 mph - 0.05 in Rain Light Rain